Regional Weather Roundup
Issued by NWS Bismarck, ND

Home | Current Version | Previous Version | Text Only | Print | Product List | Glossary On
Versions: 1 2 3 4 5 6 7 8 9 10 11 12 13 14 15 16 17 18 19 20 21 22 23 24 25 26 27 28 29 30 31 32 33 34 35 36 37 38 39 40 41 42 43 44 45 46 47 48 49 50
000
ASUS43 KBIS 251610
RWRBIS

NWR BROADCAST TEXT
NATIONAL WEATHER SERVICE BISMARCK ND
1000 AM CST SUN JAN 25 2015

NOTE: "FAIR" INDICATES FEW OR NO CLOUDS BELOW 12,000 FEET WITH NO
SIGNIFICANT WEATHER AND/OR OBSTRUCTIONS TO VISIBILITY.


CITY           SKY/WX    TMP DP  RH WIND       PRES   REMARKS
WILLISTON      CLOUDY    33  29  85 SW6       29.98F
MINOT          CLOUDY    23  19  85 W5        29.97R WCI  17
MINOT AFB      CLOUDY    22  21  98 W2        29.97F
BISMARCK       CLOUDY    35  32  88 NW6       30.01R
DICKINSON      CLOUDY    33  28  81 W12       29.96S
GARRISON         N/A     32  30  92 N5        29.97R
HETTINGER ARPT CLOUDY    33  27  78 NW9       30.00F
JAMESTOWN      CLOUDY    21  16  81 E5        29.99S WCI  15
BEACH          FAIR      32  28  86 W9        29.99S
CARRINGTON     CLOUDY    19  19 100 MISG      30.00S
CROSBY         CLOUDY    28  28 100 SW7       29.96S
HARVEY         CLOUDY    19  18  93 S6        29.98S WCI  11
HAZEN          CLOUDY    32  30  93 W7        30.00R
LINTON         MIX PCPN  32  32 100 CALM      29.99R VSB 1
MANDAN         CLOUDY    34  32  93 NW7       30.01R
OAKES            N/A     23  23 100 N6        30.01S WCI  16
RUGBY          CLOUDY    18  14  86 S5        29.99S WCI  11
TIOGA          CLOUDY    28  28 100 W8        29.99S
WATFORD CITY   CLOUDY    32  32 100 W6        29.96F
$$

CITY           SKY/WX    TMP DP  RH WIND       PRES   REMARKS
GRAND FORKS    MOSUNNY   16   8  71 CALM      30.05S
GRAND FORKS AF SUNNY     15   8  75 NW3       30.05R
DEVILS LAKE    CLOUDY    18  10  73 S5        29.99R WCI  11
FARGO          SUNNY     20  13  74 N9        30.03F WCI   9
CANDO          CLOUDY    18  12  79 SW6       30.01R WCI   9
CAVALIER       FAIR      16  10  79 S3        30.04R
GWINNER        SUNNY     21  18  86 N9        30.04R WCI  11
LANGDON        FAIR      16   9  73 CALM      29.97R
ROLLA          CLOUDY    16  16 100 SW8       29.98R WCI   5
WALHALLA         N/A     16  12  86 CALM      30.03S
$$

CITY           SKY/WX    TMP DP  RH WIND       PRES   REMARKS
ABERDEEN       CLOUDY    27  23  85 NE7       30.02R WCI  19
MOBRIDGE       CLOUDY    37  34  89 NW7       29.97S
BUFFALO          N/A     32  26  78 W7        29.94F
RAPID CITY     SUNNY     36  23  59 VRB6      30.05R
GLASGOW        PTCLDY    32  27  81 SE9       29.92F
SIDNEY         MOSUNNY   30  27  86 CALM      30.00F
WOLF POINT     MOSUNNY   32  27  81 CALM      29.97S
GLENDIVE       SUNNY     32  27  80 S5        29.98F
MILES CITY     PTSUNNY   32  28  85 SE10      29.98F
BAKER          MOSUNNY   32  25  75 W8        29.98F
$$

CITY           SKY/WX    TMP DP  RH WIND       PRES   REMARKS
BILLINGS       CLOUDY    41  29  62 SW21      30.03R
GREAT FALLS    CLOUDY    52  36  54 SW23      29.95R
REGINA         FOG       25  25 100 SE12      29.90F VSB 3/4 WCI  14
ESTEVAN        CLOUDY    25  23  93 SW8       29.95  WCI  16
$$



USA.gov is the U.S. government's official web portal to all federal, state and local government web resources and services.